Terminal Aerodrome Forecast
Issued by NWS

Home | Current Version | Previous Version | Text Only | Print | Product List | Glossary On
Versions: 1 2 3 4 5 6 7 8 9 10 11 12 13 14 15 16 17 18 19 20 21 22 23 24 25 26 27 28 29 30
000
FTUS46 KOTX 032329
TAFCOE
TAF
KCOE 032329Z 0400/0424 26010KT P6SM SCT060
     FM040300 17005KT P6SM SKC
     FM041400 13005KT P6SM FEW100 SCT200
     FM042100 21007KT P6SM FEW100 FEW200
      AMD LTD TO CLD AND VIS=

USA.gov is the U.S. government's official web portal to all federal, state and local government web resources and services.